Chicago, IL (60625)

7:45 AM CDT on June 24, 2018 (GMT -0500)
Albany Park | | Change Station
Active Advisory: Flood Warning

Elev 600 ft 41.97 °N, 87.71 °W | Updated 11 seconds ago

Clear
Clear
71.4 °F
Feels Like 76 °F
N
1.1
Wind Variable Wind from North
Gusts 2.5 mph

Today
High -- | Low -- °F
--% Chance of Precip.
Yesterday
High -- | Low -- °F
Precip. -- in
Pressure 29.85 in
Visibility 10.0 miles
Clouds Few 14000 ft
Few 20000 ft
Heat Index 76 °F
Dew Point 56 °F
Humidity 59%
Rainfall 0.00 in
Snow Depth Not available.
5:16 AM 8:30 PM
Waxing Gibbous, 88% visible
METAR KORD 241151Z 00000KT 10SM FEW140 FEW200 20/14 A2986 RMK AO2 SLP107 T02000139 10200 20178 51011
Pressure 29.85 in
Visibility 10.0 miles
Clouds Few 14000 ft
Few 20000 ft
Heat Index 76 °F
Dew Point 56 °F
Humidity 59%
Rainfall 0.00 in
Snow Depth Not available.
5:16 AM 8:30 PM
Waxing Gibbous, 88% visible
METAR KORD 241151Z 00000KT 10SM FEW140 FEW200 20/14 A2986 RMK AO2 SLP107 T02000139 10200 20178 51011

Get Your Daily Forecast Email!

Thanks for signing up!

Be on the lookout for a verification email in your inbox.

You'll start receiving severe weather alerts in your inbox..

×

10-Day Weather Forecast

Almanac

Astronomy

Jun. 24, 2018 Rise Set
Actual Time
Civil Twilight
Nautical Twilight
Astronomical Twilight
Moon
Length of Visible Light
Length of Day
Tomorrow will be .
, % of the Moon is Illuminated

Today's Extremes

State Highs State Lows

Community

WunderPhotos

Category 6

Welcome to Category 6. This is the collective home for Weather Underground's featured writeups by Dr. Jeff Masters (right), Bob Henson (left), Chris Burt, and other regular contributors.

Nearby

Air Quality

  Air Quality AQ Index Pollutant
Not available.

Snow Depth

Station Depth Elevation

Earthquake Activity

City Distance Mag. Time & Date
Minimum magnitude displayed is 2.5.

Coastal Water Temperatures

Place Temperature

Stations

Nearby Weather Stations

Station Location Temp. Windchill Dew Point Humidity Wind Precip. Elev Updated Type
                   

Watches & Warnings

Flood Warning
Issued: 8:30 PM CDT Jun. 23, 2018 – National Weather Service

The Flood Warning continues for
the Des Plaines river near Des Plaines.
* Until late Sunday night.
* At 745 PM Saturday the stage was 15.5 feet.
* Flood stage is 15.0 feet.
* Minor flooding is occurring and minor flooding is forecast.
* Forecast... the river will continue to fall to below flood stage by
Sunday evening.
* Impact... at 15.5 feet... water reaches some backyards along Big Bend
drive.


Lat... Lon 4212 8784 4196 8780 4196 8790 4212 8794